Data supplied by UK-AIR on 18/3/2021
All Data GMT hour ending 
Status: R =Ratified P=Provisional,P*=As supplied
,,Luton A505 Roadside,,,,,,,,,,,,,,,,,,,,,,,
Date,time,"Nitric oxide",status,unit,"Nitrogen dioxide",status,unit,"Nitrogen oxides as nitrogen dioxide",status,unit
 
01-01-2020,01:00,11.48578,R,ugm-3,24.31281,R,ugm-3,41.92409,R,ugm-3
01-01-2020,02:00,21.02045,R,ugm-3,40.43629,R,ugm-3,72.66719,R,ugm-3
01-01-2020,03:00,9.57148,R,ugm-3,42.24196,R,ugm-3,56.91803,R,ugm-3
01-01-2020,04:00,15.94020,R,ugm-3,40.87628,R,ugm-3,65.31758,R,ugm-3
01-01-2020,05:00,28.45675,R,ugm-3,43.23599,R,ugm-3,86.86907,R,ugm-3
01-01-2020,06:00,21.71990,R,ugm-3,44.61353,R,ugm-3,77.91691,R,ugm-3
01-01-2020,07:00,22.78749,R,ugm-3,46.01589,R,ugm-3,80.95622,R,ugm-3
01-01-2020,08:00,21.31495,R,ugm-3,39.92946,R,ugm-3,72.61193,R,ugm-3
01-01-2020,09:00,47.63653,R,ugm-3,48.86239,R,ugm-3,121.90405,R,ugm-3
01-01-2020,10:00,49.21950,R,ugm-3,36.87518,R,ugm-3,112.34403,R,ugm-3
01-01-2020,11:00,48.48324,R,ugm-3,47.72990,R,ugm-3,122.06983,R,ugm-3
01-01-2020,12:00,57.28164,R,ugm-3,46.89380,R,ugm-3,134.72442,R,ugm-3
01-01-2020,13:00,65.89597,R,ugm-3,54.62896,R,ugm-3,155.66804,R,ugm-3
01-01-2020,14:00,75.87240,R,ugm-3,53.58912,R,ugm-3,169.92518,R,ugm-3
01-01-2020,15:00,91.18677,R,ugm-3,53.31671,R,ugm-3,193.13447,R,ugm-3
01-01-2020,16:00,68.62016,R,ugm-3,57.41472,R,ugm-3,162.63083,R,ugm-3
01-01-2020,17:00,66.66905,R,ugm-3,61.01424,R,ugm-3,163.23869,R,ugm-3
01-01-2020,18:00,74.84162,R,ugm-3,63.56918,R,ugm-3,178.32473,R,ugm-3
01-01-2020,19:00,74.95206,R,ugm-3,62.73672,R,ugm-3,177.66161,R,ugm-3
01-01-2020,20:00,34.01557,R,ugm-3,47.97503,R,ugm-3,100.13152,R,ugm-3
01-01-2020,21:00,18.33307,R,ugm-3,51.13284,R,ugm-3,79.24316,R,ugm-3
01-01-2020,22:00,16.78691,R,ugm-3,49.08278,R,ugm-3,74.82234,R,ugm-3
01-01-2020,23:00,14.24678,R,ugm-3,38.83096,R,ugm-3,60.67572,R,ugm-3
01-01-2020,24:00,6.73685,R,ugm-3,26.52887,R,ugm-3,36.85857,R,ugm-3
02-01-2020,01:00,3.82985,R,ugm-3,18.52479,R,ugm-3,24.39715,R,ugm-3
02-01-2020,02:00,2.90921,R,ugm-3,15.32970,R,ugm-3,19.79044,R,ugm-3
02-01-2020,03:00,3.60890,R,ugm-3,10.94004,R,ugm-3,16.47360,R,ugm-3
02-01-2020,04:00,4.08763,R,ugm-3,8.87926,R,ugm-3,15.14687,R,ugm-3
02-01-2020,05:00,9.24320,R,ugm-3,15.34710,R,ugm-3,29.51981,R,ugm-3
02-01-2020,06:00,29.64452,R,ugm-3,27.90298,R,ugm-3,73.35728,R,ugm-3
02-01-2020,07:00,43.04900,R,ugm-3,42.61872,R,ugm-3,108.62627,R,ugm-3
02-01-2020,08:00,38.07756,R,ugm-3,35.92383,R,ugm-3,94.30861,R,ugm-3
02-01-2020,09:00,41.87059,R,ugm-3,32.81669,R,ugm-3,97.01736,R,ugm-3
02-01-2020,10:00,31.55945,R,ugm-3,22.64502,R,ugm-3,71.03550,R,ugm-3
02-01-2020,11:00,24.56260,R,ugm-3,31.60439,R,ugm-3,69.26652,R,ugm-3
02-01-2020,12:00,14.32512,R,ugm-3,28.28514,R,ugm-3,50.25002,R,ugm-3
02-01-2020,13:00,13.40448,R,ugm-3,22.62086,R,ugm-3,43.17411,R,ugm-3
02-01-2020,14:00,14.58290,R,ugm-3,21.09038,R,ugm-3,43.45051,R,ugm-3
02-01-2020,15:00,18.96513,R,ugm-3,25.20604,R,ugm-3,54.28549,R,ugm-3
02-01-2020,16:00,14.43559,R,ugm-3,30.99034,R,ugm-3,53.12460,R,ugm-3
02-01-2020,17:00,11.23178,R,ugm-3,14.12225,R,ugm-3,31.34407,R,ugm-3
02-01-2020,18:00,7.91748,R,ugm-3,11.18842,R,ugm-3,23.32839,R,ugm-3
02-01-2020,19:00,6.48129,R,ugm-3,10.18428,R,ugm-3,20.12212,R,ugm-3
02-01-2020,20:00,5.89208,R,ugm-3,13.02254,R,ugm-3,22.05694,R,ugm-3
02-01-2020,21:00,4.34541,R,ugm-3,6.71503,R,ugm-3,13.37789,R,ugm-3
02-01-2020,22:00,5.26605,R,ugm-3,7.40406,R,ugm-3,15.47855,R,ugm-3
02-01-2020,23:00,2.94604,R,ugm-3,7.69980,R,ugm-3,12.21700,R,ugm-3
02-01-2020,24:00,2.06223,R,ugm-3,4.41140,R,ugm-3,7.57344,R,ugm-3
03-01-2020,01:00,2.06291,R,ugm-3,4.13664,R,ugm-3,7.29971,R,ugm-3
03-01-2020,02:00,2.06291,R,ugm-3,3.32556,R,ugm-3,6.48864,R,ugm-3
03-01-2020,03:00,2.09974,R,ugm-3,4.46726,R,ugm-3,7.68682,R,ugm-3
03-01-2020,04:00,2.43128,R,ugm-3,4.84372,R,ugm-3,8.57164,R,ugm-3
03-01-2020,05:00,2.72598,R,ugm-3,8.48412,R,ugm-3,12.66390,R,ugm-3
03-01-2020,06:00,7.47803,R,ugm-3,15.90777,R,ugm-3,27.37393,R,ugm-3
03-01-2020,07:00,10.79342,R,ugm-3,16.40964,R,ugm-3,32.95932,R,ugm-3
03-01-2020,08:00,21.58683,R,ugm-3,37.85167,R,ugm-3,70.95102,R,ugm-3
03-01-2020,09:00,52.89879,R,ugm-3,46.74526,R,ugm-3,127.85561,R,ugm-3
03-01-2020,10:00,45.27341,R,ugm-3,40.90698,R,ugm-3,110.32523,R,ugm-3
03-01-2020,11:00,45.05238,R,ugm-3,48.54559,R,ugm-3,117.62495,R,ugm-3
03-01-2020,12:00,34.44315,R,ugm-3,39.98276,R,ugm-3,92.79486,R,ugm-3
03-01-2020,13:00,49.03084,R,ugm-3,55.16457,R,ugm-3,130.34415,R,ugm-3
03-01-2020,14:00,42.69478,R,ugm-3,41.26627,R,ugm-3,106.73068,R,ugm-3
03-01-2020,15:00,68.44426,R,ugm-3,60.07140,R,ugm-3,165.01779,R,ugm-3
03-01-2020,16:00,54.18811,R,ugm-3,49.13711,R,ugm-3,132.22438,R,ugm-3
03-01-2020,17:00,80.37964,R,ugm-3,77.55040,R,ugm-3,200.79745,R,ugm-3
03-01-2020,18:00,103.84519,R,ugm-3,88.29962,R,ugm-3,247.52669,R,ugm-3
03-01-2020,19:00,62.95545,R,ugm-3,78.82871,R,ugm-3,175.35906,R,ugm-3
03-01-2020,20:00,50.28332,R,ugm-3,72.10173,R,ugm-3,149.20174,R,ugm-3
03-01-2020,21:00,20.51854,R,ugm-3,46.95531,R,ugm-3,78.41663,R,ugm-3
03-01-2020,22:00,32.26974,R,ugm-3,45.30612,R,ugm-3,94.78569,R,ugm-3
03-01-2020,23:00,10.60923,R,ugm-3,29.13476,R,ugm-3,45.40201,R,ugm-3
03-01-2020,24:00,12.23008,R,ugm-3,35.22112,R,ugm-3,53.97365,R,ugm-3
04-01-2020,01:00,8.74566,R,ugm-3,31.21593,R,ugm-3,44.62576,R,ugm-3
04-01-2020,02:00,2.70231,R,ugm-3,8.69103,R,ugm-3,12.83452,R,ugm-3
04-01-2020,03:00,4.82731,R,ugm-3,5.93063,R,ugm-3,13.33241,R,ugm-3
04-01-2020,04:00,2.43208,R,ugm-3,5.50950,R,ugm-3,9.23864,R,ugm-3
04-01-2020,05:00,3.13223,R,ugm-3,8.25312,R,ugm-3,13.05580,R,ugm-3
04-01-2020,06:00,7.25939,R,ugm-3,16.08712,R,ugm-3,27.21803,R,ugm-3
04-01-2020,07:00,13.04479,R,ugm-3,26.85531,R,ugm-3,46.85705,R,ugm-3
04-01-2020,08:00,11.75505,R,ugm-3,16.10901,R,ugm-3,34.13318,R,ugm-3
04-01-2020,09:00,19.45664,R,ugm-3,35.99912,R,ugm-3,65.83222,R,ugm-3
04-01-2020,10:00,16.58237,R,ugm-3,22.31625,R,ugm-3,47.74219,R,ugm-3
04-01-2020,11:00,19.12499,R,ugm-3,26.93707,R,ugm-3,56.26165,R,ugm-3
04-01-2020,12:00,18.75650,R,ugm-3,27.00420,R,ugm-3,55.76376,R,ugm-3
04-01-2020,13:00,21.04118,R,ugm-3,32.51843,R,ugm-3,64.78112,R,ugm-3
04-01-2020,14:00,33.57008,R,ugm-3,39.69593,R,ugm-3,91.16933,R,ugm-3
04-01-2020,15:00,21.22543,R,ugm-3,32.23592,R,ugm-3,64.78112,R,ugm-3
04-01-2020,16:00,25.94219,R,ugm-3,46.02570,R,ugm-3,85.80317,R,ugm-3
04-01-2020,17:00,46.98337,R,ugm-3,45.57270,R,ugm-3,117.61286,R,ugm-3
04-01-2020,18:00,28.66907,R,ugm-3,34.70811,R,ugm-3,78.66674,R,ugm-3
04-01-2020,19:00,29.36921,R,ugm-3,41.82211,R,ugm-3,86.85427,R,ugm-3
04-01-2020,20:00,27.08453,R,ugm-3,37.58027,R,ugm-3,79.10931,R,ugm-3
04-01-2020,21:00,33.42268,R,ugm-3,49.99039,R,ugm-3,101.23778,R,ugm-3
04-01-2020,22:00,40.31357,R,ugm-3,55.08040,R,ugm-3,116.89368,R,ugm-3
04-01-2020,23:00,22.22037,R,ugm-3,38.45533,R,ugm-3,72.52609,R,ugm-3
04-01-2020,24:00,9.94942,R,ugm-3,29.77589,R,ugm-3,45.03145,R,ugm-3
05-01-2020,01:00,4.47257,R,ugm-3,28.78210,R,ugm-3,35.63994,R,ugm-3
05-01-2020,02:00,1.96596,R,ugm-3,10.34132,R,ugm-3,13.35575,R,ugm-3
05-01-2020,03:00,1.32703,R,ugm-3,6.87524,R,ugm-3,8.90998,R,ugm-3
05-01-2020,04:00,5.38182,R,ugm-3,6.02610,R,ugm-3,14.27811,R,ugm-3
05-01-2020,05:00,2.65405,R,ugm-3,5.06186,R,ugm-3,9.13135,R,ugm-3
05-01-2020,06:00,3.68618,R,ugm-3,5.08419,R,ugm-3,10.73626,R,ugm-3
05-01-2020,07:00,7.00374,R,ugm-3,9.51607,R,ugm-3,20.25500,R,ugm-3
05-01-2020,08:00,6.85630,R,ugm-3,9.13340,R,ugm-3,19.64624,R,ugm-3
05-01-2020,09:00,6.52454,R,ugm-3,10.41687,R,ugm-3,20.42102,R,ugm-3
05-01-2020,10:00,10.91109,R,ugm-3,13.81841,R,ugm-3,30.54852,R,ugm-3
05-01-2020,11:00,12.97536,R,ugm-3,18.95448,R,ugm-3,38.84975,R,ugm-3
05-01-2020,12:00,18.83638,R,ugm-3,23.52637,R,ugm-3,52.40842,R,ugm-3
05-01-2020,13:00,22.11708,R,ugm-3,29.78570,R,ugm-3,63.69809,R,ugm-3
05-01-2020,14:00,20.45830,R,ugm-3,30.44752,R,ugm-3,61.81648,R,ugm-3
05-01-2020,15:00,22.89118,R,ugm-3,30.70175,R,ugm-3,65.80106,R,ugm-3
05-01-2020,16:00,15.33451,R,ugm-3,19.15572,R,ugm-3,42.66831,R,ugm-3
05-01-2020,17:00,14.92903,R,ugm-3,20.66291,R,ugm-3,43.55377,R,ugm-3
05-01-2020,18:00,13.41770,R,ugm-3,21.48604,R,ugm-3,42.05955,R,ugm-3
05-01-2020,19:00,16.07175,R,ugm-3,25.66244,R,ugm-3,50.30544,R,ugm-3
05-01-2020,20:00,15.18706,R,ugm-3,29.50930,R,ugm-3,52.79581,R,ugm-3
05-01-2020,21:00,18.54149,R,ugm-3,29.56803,R,ugm-3,57.99791,R,ugm-3
05-01-2020,22:00,10.80051,R,ugm-3,25.00093,R,ugm-3,41.56148,R,ugm-3
05-01-2020,23:00,4.60773,R,ugm-3,8.26452,R,ugm-3,15.32960,R,ugm-3
05-01-2020,24:00,7.26178,R,ugm-3,14.82061,R,ugm-3,25.95517,R,ugm-3
06-01-2020,01:00,2.50743,R,ugm-3,5.52994,R,ugm-3,9.37461,R,ugm-3
06-01-2020,02:00,2.75325,R,ugm-3,6.33406,R,ugm-3,10.55566,R,ugm-3
06-01-2020,03:00,1.76995,R,ugm-3,5.31359,R,ugm-3,8.02747,R,ugm-3
06-01-2020,04:00,1.32746,R,ugm-3,3.55614,R,ugm-3,5.59155,R,ugm-3
06-01-2020,05:00,2.02807,R,ugm-3,6.80011,R,ugm-3,9.90977,R,ugm-3
06-01-2020,06:00,12.05777,R,ugm-3,14.34125,R,ugm-3,32.82957,R,ugm-3
06-01-2020,07:00,10.25095,R,ugm-3,19.43687,R,ugm-3,35.15477,R,ugm-3
06-01-2020,08:00,22.08747,R,ugm-3,29.02407,R,ugm-3,62.89105,R,ugm-3
06-01-2020,09:00,31.89593,R,ugm-3,39.22964,R,ugm-3,88.13605,R,ugm-3
06-01-2020,10:00,12.68462,R,ugm-3,20.68785,R,ugm-3,40.13734,R,ugm-3
06-01-2020,11:00,15.22892,R,ugm-3,20.99415,R,ugm-3,44.34484,R,ugm-3
06-01-2020,12:00,13.97521,R,ugm-3,18.26608,R,ugm-3,39.69444,R,ugm-3
06-01-2020,13:00,14.04896,R,ugm-3,17.87620,R,ugm-3,39.41763,R,ugm-3
06-01-2020,14:00,14.65123,R,ugm-3,19.61009,R,ugm-3,42.07500,R,ugm-3
06-01-2020,15:00,13.34836,R,ugm-3,25.09561,R,ugm-3,45.56280,R,ugm-3
06-01-2020,16:00,11.43091,R,ugm-3,21.44758,R,ugm-3,38.97474,R,ugm-3
06-01-2020,17:00,8.40725,R,ugm-3,20.10472,R,ugm-3,32.99566,R,ugm-3
06-01-2020,18:00,12.05777,R,ugm-3,22.14727,R,ugm-3,40.63559,R,ugm-3
06-01-2020,19:00,22.19809,R,ugm-3,30.57067,R,ugm-3,64.60727,R,ugm-3
06-01-2020,20:00,18.10509,R,ugm-3,28.70833,R,ugm-3,56.46908,R,ugm-3
06-01-2020,21:00,9.91908,R,ugm-3,24.92829,R,ugm-3,40.13734,R,ugm-3
06-01-2020,22:00,7.85414,R,ugm-3,18.29544,R,ugm-3,30.33829,R,ugm-3
06-01-2020,23:00,7.00604,R,ugm-3,17.60281,R,ugm-3,28.34526,R,ugm-3
06-01-2020,24:00,4.20363,R,ugm-3,17.30476,R,ugm-3,23.75023,R,ugm-3
07-01-2020,01:00,2.55470,R,ugm-3,13.56102,R,ugm-3,17.47817,R,ugm-3
07-01-2020,02:00,3.97943,R,ugm-3,12.70392,R,ugm-3,18.80562,R,ugm-3
07-01-2020,03:00,1.73179,R,ugm-3,7.35586,R,ugm-3,10.01123,R,ugm-3
07-01-2020,04:00,9.39587,R,ugm-3,15.29502,R,ugm-3,29.70182,R,ugm-3
07-01-2020,05:00,11.31189,R,ugm-3,14.95676,R,ugm-3,32.30142,R,ugm-3
07-01-2020,06:00,44.32641,R,ugm-3,39.94487,R,ugm-3,107.91108,R,ugm-3
07-01-2020,07:00,53.53805,R,ugm-3,39.53760,R,ugm-3,121.62812,R,ugm-3
07-01-2020,08:00,29.55094,R,ugm-3,27.20146,R,ugm-3,72.51227,R,ugm-3
07-01-2020,09:00,10.24334,R,ugm-3,21.29659,R,ugm-3,37.00283,R,ugm-3
07-01-2020,10:00,23.28702,R,ugm-3,30.77713,R,ugm-3,66.48340,R,ugm-3
07-01-2020,11:00,14.81232,R,ugm-3,23.69374,R,ugm-3,46.40564,R,ugm-3
07-01-2020,12:00,20.37615,R,ugm-3,23.62518,R,ugm-3,54.86817,R,ugm-3
07-01-2020,13:00,12.12252,R,ugm-3,21.56793,R,ugm-3,40.15553,R,ugm-3
07-01-2020,14:00,10.02226,R,ugm-3,15.88326,R,ugm-3,31.25052,R,ugm-3
07-01-2020,15:00,10.98027,R,ugm-3,20.22195,R,ugm-3,37.05814,R,ugm-3
07-01-2020,16:00,12.71206,R,ugm-3,20.00025,R,ugm-3,39.49181,R,ugm-3
07-01-2020,17:00,6.85346,R,ugm-3,18.80615,R,ugm-3,29.31465,R,ugm-3
07-01-2020,18:00,10.02226,R,ugm-3,15.93857,R,ugm-3,31.30583,R,ugm-3
07-01-2020,19:00,9.54326,R,ugm-3,15.45620,R,ugm-3,30.08900,R,ugm-3
07-01-2020,20:00,6.48500,R,ugm-3,11.18515,R,ugm-3,21.12867,R,ugm-3
07-01-2020,21:00,4.16366,R,ugm-3,7.11161,R,ugm-3,13.49580,R,ugm-3
07-01-2020,22:00,3.90574,R,ugm-3,6.01370,R,ugm-3,12.00241,R,ugm-3
07-01-2020,23:00,4.05312,R,ugm-3,5.78771,R,ugm-3,12.00241,R,ugm-3
07-01-2020,24:00,2.91088,R,ugm-3,6.43291,R,ugm-3,10.89620,R,ugm-3
08-01-2020,01:00,3.58374,R,ugm-3,2.68342,R,ugm-3,8.17840,R,ugm-3
08-01-2020,02:00,1.76732,R,ugm-3,1.56354,R,ugm-3,4.27340,R,ugm-3
08-01-2020,03:00,1.69368,R,ugm-3,1.05735,R,ugm-3,3.31557,R,ugm-3
08-01-2020,04:00,1.43595,R,ugm-3,2.49530,R,ugm-3,4.69705,R,ugm-3
08-01-2020,05:00,4.63922,R,ugm-3,5.65156,R,ugm-3,12.76494,R,ugm-3
08-01-2020,06:00,11.89260,R,ugm-3,14.03645,R,ugm-3,32.27153,R,ugm-3
08-01-2020,07:00,17.37867,R,ugm-3,23.30764,R,ugm-3,49.95455,R,ugm-3
08-01-2020,08:00,27.24621,R,ugm-3,29.50776,R,ugm-3,71.28470,R,ugm-3
08-01-2020,09:00,43.99895,R,ugm-3,32.61077,R,ugm-3,100.07489,R,ugm-3
08-01-2020,10:00,29.16081,R,ugm-3,33.92159,R,ugm-3,78.63421,R,ugm-3
08-01-2020,11:00,42.12117,R,ugm-3,30.40612,R,ugm-3,94.99101,R,ugm-3
08-01-2020,12:00,35.19916,R,ugm-3,41.57232,R,ugm-3,95.54361,R,ugm-3
08-01-2020,13:00,59.57348,R,ugm-3,55.36915,R,ugm-3,146.71387,R,ugm-3
08-01-2020,14:00,60.05213,R,ugm-3,58.28235,R,ugm-3,150.36100,R,ugm-3
08-01-2020,15:00,90.31751,R,ugm-3,64.37256,R,ugm-3,202.85748,R,ugm-3
08-01-2020,16:00,81.40727,R,ugm-3,64.71722,R,ugm-3,189.53995,R,ugm-3
08-01-2020,17:00,138.07202,R,ugm-3,91.88800,R,ugm-3,303.59548,R,ugm-3
08-01-2020,18:00,161.78359,R,ugm-3,94.82024,R,ugm-3,342.88496,R,ugm-3
08-01-2020,19:00,188.47752,R,ugm-3,117.05169,R,ugm-3,406.04652,R,ugm-3
08-01-2020,20:00,114.69183,R,ugm-3,93.80782,R,ugm-3,269.66617,R,ugm-3
08-01-2020,21:00,68.63100,R,ugm-3,79.38913,R,ugm-3,184.62186,R,ugm-3
08-01-2020,22:00,21.94425,R,ugm-3,61.06734,R,ugm-3,94.71472,R,ugm-3
08-01-2020,23:00,24.66887,R,ugm-3,63.24448,R,ugm-3,101.06956,R,ugm-3
08-01-2020,24:00,8.54206,R,ugm-3,35.80699,R,ugm-3,48.90462,R,ugm-3
09-01-2020,01:00,3.28674,R,ugm-3,16.89649,R,ugm-3,21.93609,R,ugm-3
09-01-2020,02:00,2.84524,R,ugm-3,3.14569,R,ugm-3,7.50833,R,ugm-3
09-01-2020,03:00,0.77263,R,ugm-3,2.62469,R,ugm-3,3.80937,R,ugm-3
09-01-2020,04:00,0.84621,R,ugm-3,1.95978,R,ugm-3,3.25729,R,ugm-3
09-01-2020,05:00,1.80280,R,ugm-3,4.96490,R,ugm-3,7.72916,R,ugm-3
09-01-2020,06:00,6.07066,R,ugm-3,8.30323,R,ugm-3,17.61144,R,ugm-3
09-01-2020,07:00,9.05080,R,ugm-3,9.08895,R,ugm-3,22.96664,R,ugm-3
09-01-2020,08:00,11.18472,R,ugm-3,14.65029,R,ugm-3,31.79996,R,ugm-3
09-01-2020,09:00,9.63947,R,ugm-3,15.63945,R,ugm-3,30.41976,R,ugm-3
09-01-2020,10:00,8.71967,R,ugm-3,10.92167,R,ugm-3,24.29164,R,ugm-3
09-01-2020,11:00,12.54602,R,ugm-3,10.52029,R,ugm-3,29.75726,R,ugm-3
09-01-2020,12:00,14.20166,R,ugm-3,13.50435,R,ugm-3,32.60969,R,ugm-3
09-01-2020,13:00,15.59975,R,ugm-3,14.89214,R,ugm-3,38.81141,R,ugm-3
09-01-2020,14:00,33.88530,R,ugm-3,41.34524,R,ugm-3,93.30198,R,ugm-3
09-01-2020,15:00,85.79861,R,ugm-3,61.50730,R,ugm-3,193.06332,R,ugm-3
09-01-2020,16:00,158.42573,R,ugm-3,94.79293,R,ugm-3,337.70899,R,ugm-3
09-01-2020,17:00,192.05349,R,ugm-3,102.57998,R,ugm-3,397.05788,R,ugm-3
09-01-2020,18:00,173.28964,R,ugm-3,87.01857,R,ugm-3,352.72564,R,ugm-3
09-01-2020,19:00,101.91344,R,ugm-3,68.54298,R,ugm-3,224.80808,R,ugm-3
09-01-2020,20:00,33.70134,R,ugm-3,49.24605,R,ugm-3,100.92072,R,ugm-3
09-01-2020,21:00,21.30249,R,ugm-3,33.42095,R,ugm-3,66.08430,R,ugm-3
09-01-2020,22:00,27.48352,R,ugm-3,29.90599,R,ugm-3,72.04679,R,ugm-3
09-01-2020,23:00,21.67040,R,ugm-3,24.07870,R,ugm-3,57.30618,R,ugm-3
09-01-2020,24:00,16.59313,R,ugm-3,29.98667,R,ugm-3,55.42910,R,ugm-3
10-01-2020,01:00,6.86271,R,ugm-3,17.86484,R,ugm-3,28.38751,R,ugm-3
10-01-2020,02:00,3.41910,R,ugm-3,16.21356,R,ugm-3,21.45610,R,ugm-3
10-01-2020,03:00,2.24264,R,ugm-3,12.83268,R,ugm-3,16.27134,R,ugm-3
10-01-2020,04:00,5.07350,R,ugm-3,13.40106,R,ugm-3,21.18032,R,ugm-3
10-01-2020,05:00,12.02199,R,ugm-3,15.87424,R,ugm-3,34.30770,R,ugm-3
10-01-2020,06:00,29.92631,R,ugm-3,36.84926,R,ugm-3,82.73562,R,ugm-3
10-01-2020,07:00,70.55109,R,ugm-3,61.54152,R,ugm-3,169.71834,R,ugm-3
10-01-2020,08:00,94.30095,R,ugm-3,66.49337,R,ugm-3,211.08615,R,ugm-3
10-01-2020,09:00,135.36691,R,ugm-3,74.89971,R,ugm-3,282.45941,R,ugm-3
10-01-2020,10:00,103.12444,R,ugm-3,79.93603,R,ugm-3,238.05796,R,ugm-3
10-01-2020,11:00,71.28637,R,ugm-3,69.12891,R,ugm-3,178.43316,R,ugm-3
10-01-2020,12:00,68.93345,R,ugm-3,54.70031,R,ugm-3,160.39679,R,ugm-3
10-01-2020,13:00,90.18333,R,ugm-3,59.73474,R,ugm-3,198.01392,R,ugm-3
10-01-2020,14:00,67.94080,R,ugm-3,53.07839,R,ugm-3,157.25284,R,ugm-3
10-01-2020,15:00,82.64661,R,ugm-3,57.77741,R,ugm-3,184.50043,R,ugm-3
10-01-2020,16:00,77.97751,R,ugm-3,59.03477,R,ugm-3,178.59863,R,ugm-3
10-01-2020,17:00,145.62420,R,ugm-3,96.34795,R,ugm-3,319.63528,R,ugm-3
10-01-2020,18:00,59.99967,R,ugm-3,61.83488,R,ugm-3,153.83310,R,ugm-3
10-01-2020,19:00,40.95566,R,ugm-3,48.01278,R,ugm-3,110.81058,R,ugm-3
10-01-2020,20:00,39.41155,R,ugm-3,49.44271,R,ugm-3,109.87291,R,ugm-3
10-01-2020,21:00,12.94111,R,ugm-3,36.80357,R,ugm-3,56.64632,R,ugm-3
10-01-2020,22:00,12.53670,R,ugm-3,33.89360,R,ugm-3,53.11627,R,ugm-3
10-01-2020,23:00,11.83817,R,ugm-3,23.05073,R,ugm-3,41.20234,R,ugm-3
10-01-2020,24:00,7.46320,R,ugm-3,23.14008,R,ugm-3,34.58349,R,ugm-3
11-01-2020,01:00,3.57575,R,ugm-3,16.85351,R,ugm-3,22.33625,R,ugm-3
11-01-2020,02:00,1.46949,R,ugm-3,8.76800,R,ugm-3,11.02118,R,ugm-3
11-01-2020,03:00,1.91033,R,ugm-3,8.80842,R,ugm-3,11.73755,R,ugm-3
11-01-2020,04:00,3.01245,R,ugm-3,6.62258,R,ugm-3,11.24160,R,ugm-3
11-01-2020,05:00,3.34308,R,ugm-3,8.43006,R,ugm-3,13.55605,R,ugm-3
11-01-2020,06:00,3.63698,R,ugm-3,7.97943,R,ugm-3,13.55605,R,ugm-3
11-01-2020,07:00,5.47384,R,ugm-3,4.39147,R,ugm-3,12.78457,R,ugm-3
11-01-2020,08:00,5.32689,R,ugm-3,5.16785,R,ugm-3,13.33563,R,ugm-3
11-01-2020,09:00,6.35553,R,ugm-3,12.07693,R,ugm-3,21.82193,R,ugm-3
11-01-2020,10:00,7.97196,R,ugm-3,11.96798,R,ugm-3,24.19149,R,ugm-3
11-01-2020,11:00,6.75964,R,ugm-3,8.48158,R,ugm-3,18.84622,R,ugm-3
11-01-2020,12:00,8.30260,R,ugm-3,13.38972,R,ugm-3,26.12019,R,ugm-3
11-01-2020,13:00,9.77208,R,ugm-3,10.08953,R,ugm-3,25.07318,R,ugm-3
11-01-2020,14:00,9.11081,R,ugm-3,12.48111,R,ugm-3,26.45083,R,ugm-3
11-01-2020,15:00,8.44955,R,ugm-3,10.24379,R,ugm-3,23.19958,R,ugm-3
11-01-2020,16:00,6.72290,R,ugm-3,12.50554,R,ugm-3,22.81384,R,ugm-3
11-01-2020,17:00,4.92278,R,ugm-3,6.83448,R,ugm-3,14.38264,R,ugm-3
11-01-2020,18:00,5.36362,R,ugm-3,13.37740,R,ugm-3,21.60151,R,ugm-3
11-01-2020,19:00,3.93088,R,ugm-3,9.23707,R,ugm-3,15.26433,R,ugm-3
11-01-2020,20:00,4.37172,R,ugm-3,7.67943,R,ugm-3,14.38264,R,ugm-3
11-01-2020,21:00,2.97571,R,ugm-3,10.09548,R,ugm-3,14.65817,R,ugm-3
11-01-2020,22:00,3.85740,R,ugm-3,7.64145,R,ugm-3,13.55605,R,ugm-3
11-01-2020,23:00,2.16749,R,ugm-3,3.12395,R,ugm-3,6.44739,R,ugm-3
11-01-2020,24:00,1.98381,R,ugm-3,4.67303,R,ugm-3,7.71482,R,ugm-3
12-01-2020,01:00,1.56629,R,ugm-3,2.29640,R,ugm-3,4.69800,R,ugm-3
12-01-2020,02:00,1.22366,R,ugm-3,2.01428,R,ugm-3,3.89053,R,ugm-3
12-01-2020,03:00,0.63630,R,ugm-3,0.71269,R,ugm-3,1.68834,R,ugm-3
12-01-2020,04:00,0.99116,R,ugm-3,0.68242,R,ugm-3,2.20219,R,ugm-3
12-01-2020,05:00,1.85996,R,ugm-3,1.40566,R,ugm-3,4.25756,R,ugm-3
12-01-2020,06:00,4.74780,R,ugm-3,3.58427,R,ugm-3,10.86413,R,ugm-3
12-01-2020,07:00,4.40518,R,ugm-3,2.37417,R,ugm-3,7.92788,R,ugm-3
12-01-2020,08:00,4.66215,R,ugm-3,3.69725,R,ugm-3,10.84578,R,ugm-3
12-01-2020,09:00,4.84569,R,ugm-3,8.92129,R,ugm-3,16.35125,R,ugm-3
12-01-2020,10:00,6.13054,R,ugm-3,7.22649,R,ugm-3,16.62652,R,ugm-3
12-01-2020,11:00,6.68118,R,ugm-3,9.02480,R,ugm-3,19.26915,R,ugm-3
12-01-2020,12:00,9.21416,R,ugm-3,11.41720,R,ugm-3,25.54538,R,ugm-3
12-01-2020,13:00,15.27128,R,ugm-3,19.91242,R,ugm-3,43.32805,R,ugm-3
12-01-2020,14:00,14.16998,R,ugm-3,15.26975,R,ugm-3,36.99676,R,ugm-3
12-01-2020,15:00,16.59283,R,ugm-3,20.41858,R,ugm-3,45.86056,R,ugm-3
12-01-2020,16:00,43.39099,R,ugm-3,50.29415,R,ugm-3,116.82607,R,ugm-3
12-01-2020,17:00,31.97424,R,ugm-3,50.23714,R,ugm-3,99.26362,R,ugm-3
12-01-2020,18:00,26.79816,R,ugm-3,26.79251,R,ugm-3,67.88245,R,ugm-3
12-01-2020,19:00,9.39771,R,ugm-3,16.20079,R,ugm-3,30.61041,R,ugm-3
12-01-2020,20:00,6.90144,R,ugm-3,13.69706,R,ugm-3,24.27912,R,ugm-3
12-01-2020,21:00,5.46976,R,ugm-3,12.42383,R,ugm-3,20.81068,R,ugm-3
12-01-2020,22:00,12.59146,R,ugm-3,24.62701,R,ugm-3,43.93365,R,ugm-3
12-01-2020,23:00,6.13054,R,ugm-3,16.64085,R,ugm-3,26.04087,R,ugm-3
12-01-2020,24:00,5.13937,R,ugm-3,12.87536,R,ugm-3,20.75562,R,ugm-3
13-01-2020,01:00,2.69005,R,ugm-3,10.83628,R,ugm-3,14.96095,R,ugm-3
13-01-2020,02:00,2.05422,R,ugm-3,6.53086,R,ugm-3,9.68062,R,ugm-3
13-01-2020,03:00,1.39393,R,ugm-3,7.32327,R,ugm-3,9.46060,R,ugm-3
13-01-2020,04:00,3.52152,R,ugm-3,10.05641,R,ugm-3,15.45599,R,ugm-3
13-01-2020,05:00,4.25516,R,ugm-3,7.28139,R,ugm-3,13.80588,R,ugm-3
13-01-2020,06:00,20.17535,R,ugm-3,27.36862,R,ugm-3,58.30372,R,ugm-3
13-01-2020,07:00,84.40632,R,ugm-3,49.78021,R,ugm-3,179.20143,R,ugm-3
13-01-2020,08:00,60.67278,R,ugm-3,62.90466,R,ugm-3,155.93495,R,ugm-3
13-01-2020,09:00,66.68870,R,ugm-3,62.86596,R,ugm-3,165.12053,R,ugm-3
13-01-2020,10:00,43.76217,R,ugm-3,53.85166,R,ugm-3,120.95272,R,ugm-3
13-01-2020,11:00,28.24549,R,ugm-3,28.80046,R,ugm-3,72.10960,R,ugm-3
13-01-2020,12:00,33.49108,R,ugm-3,41.71367,R,ugm-3,93.06594,R,ugm-3
13-01-2020,13:00,25.60435,R,ugm-3,32.90515,R,ugm-3,72.16460,R,ugm-3
13-01-2020,14:00,17.71763,R,ugm-3,24.37164,R,ugm-3,51.53829,R,ugm-3
13-01-2020,15:00,18.70805,R,ugm-3,22.57799,R,ugm-3,51.26327,R,ugm-3
13-01-2020,16:00,16.14028,R,ugm-3,27.50525,R,ugm-3,52.25334,R,ugm-3
13-01-2020,17:00,12.76549,R,ugm-3,17.33387,R,ugm-3,36.90735,R,ugm-3
13-01-2020,18:00,9.79422,R,ugm-3,14.79432,R,ugm-3,29.81190,R,ugm-3
13-01-2020,19:00,6.63952,R,ugm-3,10.28085,R,ugm-3,20.46131,R,ugm-3
13-01-2020,20:00,4.62199,R,ugm-3,7.19468,R,ugm-3,13.49420,R,ugm-3
13-01-2020,21:00,6.63952,R,ugm-3,11.98595,R,ugm-3,22.16641,R,ugm-3
13-01-2020,22:00,3.52152,R,ugm-3,8.07628,R,ugm-3,13.47586,R,ugm-3
13-01-2020,23:00,4.07175,R,ugm-3,6.82799,R,ugm-3,13.12751,R,ugm-3
13-01-2020,24:00,1.57735,R,ugm-3,1.76170,R,ugm-3,4.18027,R,ugm-3
14-01-2020,01:00,1.31958,R,ugm-3,1.42035,R,ugm-3,3.44368,R,ugm-3
14-01-2020,02:00,,,,,,,,,
14-01-2020,03:00,1.42955,R,ugm-3,1.98443,R,ugm-3,4.17638,R,ugm-3
14-01-2020,04:00,2.96906,R,ugm-3,5.77649,R,ugm-3,9.59834,R,ugm-3
14-01-2020,05:00,6.81785,R,ugm-3,16.41780,R,ugm-3,26.87169,R,ugm-3
14-01-2020,06:00,30.93691,R,ugm-3,37.24560,R,ugm-3,84.68152,R,ugm-3
14-01-2020,07:00,49.08118,R,ugm-3,50.14443,R,ugm-3,125.40119,R,ugm-3
14-01-2020,08:00,46.88188,R,ugm-3,45.16390,R,ugm-3,117.04844,R,ugm-3
14-01-2020,09:00,53.73638,R,ugm-3,61.36063,R,ugm-3,143.75527,R,ugm-3
14-01-2020,10:00,39.25761,R,ugm-3,50.09514,R,ugm-3,110.28930,R,ugm-3
14-01-2020,11:00,35.37217,R,ugm-3,43.90827,R,ugm-3,98.14484,R,ugm-3
14-01-2020,12:00,21.22330,R,ugm-3,41.42388,R,ugm-3,73.96582,R,ugm-3
14-01-2020,13:00,14.55208,R,ugm-3,21.64898,R,ugm-3,43.96186,R,ugm-3
14-01-2020,14:00,11.69298,R,ugm-3,17.73507,R,ugm-3,35.66406,R,ugm-3
14-01-2020,15:00,7.84419,R,ugm-3,8.03000,R,ugm-3,20.05760,R,ugm-3
14-01-2020,16:00,7.25771,R,ugm-3,11.34717,R,ugm-3,22.47550,R,ugm-3
14-01-2020,17:00,6.56126,R,ugm-3,10.98627,R,ugm-3,21.04674,R,ugm-3
14-01-2020,18:00,6.74454,R,ugm-3,6.47393,R,ugm-3,16.81541,R,ugm-3
14-01-2020,19:00,4.65520,R,ugm-3,6.71011,R,ugm-3,13.84798,R,ugm-3
14-01-2020,20:00,4.39861,R,ugm-3,5.12526,R,ugm-3,11.86970,R,ugm-3
14-01-2020,21:00,2.96906,R,ugm-3,5.06416,R,ugm-3,9.61666,R,ugm-3
14-01-2020,22:00,3.95875,R,ugm-3,6.89875,R,ugm-3,12.96875,R,ugm-3
14-01-2020,23:00,3.26230,R,ugm-3,2.41643,R,ugm-3,7.41856,R,ugm-3
14-01-2020,24:00,2.19931,R,ugm-3,2.39777,R,ugm-3,5.76999,R,ugm-3
15-01-2020,01:00,1.26976,R,ugm-3,3.68957,R,ugm-3,5.63652,R,ugm-3
15-01-2020,02:00,1.42848,R,ugm-3,2.97040,R,ugm-3,5.16071,R,ugm-3
15-01-2020,03:00,3.33313,R,ugm-3,6.52832,R,ugm-3,11.63904,R,ugm-3
15-01-2020,04:00,2.45406,R,ugm-3,6.33897,R,ugm-3,10.10181,R,ugm-3
15-01-2020,05:00,8.71741,R,ugm-3,18.31145,R,ugm-3,31.67795,R,ugm-3
15-01-2020,06:00,36.73763,R,ugm-3,31.62135,R,ugm-3,87.95161,R,ugm-3
15-01-2020,07:00,43.91667,R,ugm-3,34.88794,R,ugm-3,102.22590,R,ugm-3
15-01-2020,08:00,76.18572,R,ugm-3,63.91804,R,ugm-3,180.73452,R,ugm-3
15-01-2020,09:00,52.19455,R,ugm-3,46.68128,R,ugm-3,126.71180,R,ugm-3
15-01-2020,10:00,33.91730,R,ugm-3,45.44370,R,ugm-3,97.44950,R,ugm-3
15-01-2020,11:00,26.51849,R,ugm-3,37.57299,R,ugm-3,78.23411,R,ugm-3
15-01-2020,12:00,24.90687,R,ugm-3,32.13834,R,ugm-3,70.32835,R,ugm-3
15-01-2020,13:00,18.02085,R,ugm-3,22.32844,R,ugm-3,49.96003,R,ugm-3
15-01-2020,14:00,19.59585,R,ugm-3,16.34491,R,ugm-3,46.39145,R,ugm-3
15-01-2020,15:00,22.15979,R,ugm-3,22.62519,R,ugm-3,56.60306,R,ugm-3
15-01-2020,16:00,16.18947,R,ugm-3,20.19542,R,ugm-3,45.01893,R,ugm-3